Location: Unspecified
(51.5147°N, 7.4673°E)
Time: 08:25:36
(UTC+01:00)

A-11 Canister half - Pass Details

Date: 19 February 2026
Orbit: 1512 x 1687 km, 47.2° (Epoch: 8 March)

Event Time Altitude Azimuth Distance (km) Brightness Sun altitude
Rises 01:35:04 0° 277° (W) 4,913 - -48.5°
Reaches altitude 10° 01:38:18 10° 274° (W) 3,908 - -48.3°
Maximum altitude 01:48:02 61° 198° (SSW) 1,803 - -47.8°
Drops below altitude 10° 01:57:23 10° 122° (ESE) 3,768 - -47.1°
Exits shadow 02:00:22 - 119° (ESE) 4,703 11.6 -46.9°
Sets 02:00:27 0° 119° (ESE) 4,728 11.6 -46.9°
